GFSFLT2_850_temp_141.txt.gz
Temp
16 16 16 16 16 17 18 19 18 18 18 18 18 18 18 17 18 18 17 18 17 17 17 16 16 16 16 15 15 15 15 15
16 16 16 16 15 16 16 18 18 18 18 17 17 17 17 17 17 17 17 17 17 17 17 17 16 16 16 16 15 15 15 15
16 16 16 16 16 15 15 15 17 17 18 17 17 17 17 17 17 17 17 17 17 17 17 16 16 16 16 16 15 15 15 15
16 16 16 16 15 16 14 14 15 16 17 17 17 17 17 17 17 17 17 17 17 16 16 16 16 16 16 16 15 16 15 15
16 16 16 16 16 15 14 14 14 14 15 16 17 17 17 17 16 16 16 16 16 16 16 16 16 16 16 16 15 15 15 15
15 15 16 15 15 15 14 14 14 14 13 14 15 16 17 16 16 16 16 16 16 16 16 16 16 16 16 16 15 15 15 15
15 15 16 16 16 15 15 15 14 14 14 14 14 14 16 16 16 16 16 16 16 16 16 16 16 16 15 16 15 15 15 15
14 14 15 15 15 15 16 15 15 14 14 14 14 14 14 15 16 16 16 16 16 16 16 16 16 16 15 15 15 15 14 15
13 14 14 14 15 15 15 15 15 15 14 13 14 14 14 14 15 16 17 16 16 16 16 15 15 15 15 15 15 15 14 14
11 11 11 12 12 13 14 14 14 14 15 15 13 13 14 14 14 14 16 16 16 16 16 15 15 15 15 15 14 14 14 14
9 10 10 10 9 10 11 12 12 13 13 14 15 14 12 13 14 14 14 15 15 16 15 15 15 14 14 15 14 14 14 14
7 7 8 8 9 8 7 8 9 9 10 12 13 14 14 12 12 13 14 14 15 15 15 15 14 14 14 14 14 14 14 14
5 4 4 5 6 6 6 5 6 8 8 10 11 12 13 12 12 12 13 14 14 15 15 14 14 14 14 14 14 14 14 14
5 4 3 1 1 1 2 1 3 3 5 7 9 10 10 11 13 13 12 13 13 14 15 14 14 14 14 13 13 13 14 14
1 -0 -0 -0 -0 0 1 1 -0 1 2 4 6 7 9 9 12 13 13 11 13 13 14 14 14 14 14 13 13 13 13 14
0 -1 -1 -1 -2 -1 -1 -2 -1 -0 1 1 3 5 7 8 11 12 13 12 12 13 13 14 14 14 14 14 14 14 14 14
-2 -2 -2 -2 -4 -3 -3 -2 -1 -1 0 1 2 5 6 8 10 12 12 12 12 14 14 13 14 15 15 14 13 14 14 14
-3 -3 -2 -2 -3 -4 -3 -2 -2 -1 -0 1 3 4 5 7 9 11 10 11 12 11 11 13 14 15 15 14 14 13 13 14
-4 -3 -3 -3 -3 -3 -3 -3 -2 -1 -1 1 2 4 5 6 7 9 9 11 12 13 12 13 13 13 14 15 15 15 14 13
-4 -4 -4 -4 -4 -5 -5 -3 -3 -1 -0 0 1 3 5 7 8 10 10 11 12 14 11 12 12 12 13 14 15 15 15 14

GFSFLT2_850_temp_147.txt.gz
Temp
16 16 16 15 15 15 15 16 16 15 15 15 16 16 16 16 16 16 16 16 17 17 17 17 17 16 16 16 16 16 16 16
16 16 15 15 15 15 15 15 15 15 15 15 15 14 15 16 16 16 16 16 16 16 16 16 16 16 16 16 16 16 16 15
16 16 16 16 16 16 15 15 15 15 15 14 14 14 14 15 15 16 16 16 16 16 16 16 16 16 16 16 16 16 16 15
16 16 16 16 16 16 16 16 16 15 15 15 15 14 14 14 14 15 15 15 16 16 16 16 16 16 16 16 16 16 16 15
15 15 16 16 16 16 16 16 16 16 16 15 15 15 15 15 14 14 15 15 15 15 16 16 16 16 16 16 16 16 16 15
14 14 15 15 15 16 16 16 16 16 16 16 16 16 15 15 15 14 14 14 15 15 15 16 16 16 16 16 16 16 16 16
13 13 14 14 15 15 15 16 15 15 15 15 15 15 15 15 14 13 14 14 14 14 15 15 16 16 16 16 16 16 16 16
12 12 13 13 14 14 15 15 15 14 14 14 14 14 15 15 15 14 13 13 13 14 15 15 16 16 16 16 16 16 16 16
12 12 12 12 12 12 13 13 13 13 13 13 13 13 13 14 14 15 14 14 13 14 13 14 15 15 15 16 15 16 16 16
10 10 11 11 11 11 11 11 11 11 11 11 12 12 12 12 13 14 14 13 14 13 14 13 14 15 15 15 15 15 15 16
8 8 9 9 9 9 10 10 10 9 9 8 9 10 10 10 11 13 14 14 13 14 13 14 14 15 15 15 15 15 15 15
7 7 7 7 8 8 8 8 8 8 8 7 7 7 8 8 9 10 11 12 13 12 13 13 13 13 15 14 14 15 15 15
6 6 5 5 5 6 6 5 5 5 5 5 5 4 3 6 6 7 9 10 11 13 12 12 13 13 13 13 13 14 15 14
4 3 3 2 1 1 1 1 1 1 2 2 2 2 1 2 3 5 7 7 9 10 12 12 10 13 13 12 12 12 13 14
2 2 1 1 1 0 -0 -1 -3 -3 -2 -2 -1 -1 -1 -0 1 2 4 5 6 8 8 9 10 12 12 12 13 13 13 13
1 1 1 -0 -1 -2 -3 -5 -5 -5 -4 -3 -2 -2 -0 0 1 2 3 3 4 6 8 9 9 11 13 13 12 14 14 14
1 1 1 -0 -1 -3 -5 -6 -6 -5 -5 -4 -2 -1 -1 -0 1 1 2 4 4 5 7 9 9 11 11 15 12 11 14 14
2 1 1 0 -1 -2 -6 -7 -6 -5 -5 -5 -3 -2 -0 0 1 2 2 3 4 5 6 8 10 10 11 12 12 12 11 13
1 1 1 0 -1 -3 -6 -6 -7 -7 -6 -5 -4 -2 -0 1 2 3 4 5 5 6 6 7 10 10 11 11 11 11 13 13
0 1 0 -1 -1 -3 -6 -7 -7 -7 -6 -6 -5 -4 -2 -1 -0 2 4 5 6 7 7 7 9 10 11 10 11 11 11 11

GFSFLT2_850_temp_150.txt.gz
Temp
16 16 16 16 16 16 16 16 16 15 16 16 15 15 15 15 16 16 16 16 16 16 17 16 16 17 16 16 16 16 15 15
16 16 16 16 16 16 16 15 15 15 15 16 16 15 15 15 15 15 16 16 16 16 16 16 16 16 16 16 16 16 16 15
16 16 16 16 16 17 16 16 16 15 15 15 15 15 15 15 14 15 15 15 16 16 16 16 16 16 16 16 16 15 15 15
16 16 16 16 16 16 16 16 17 16 16 16 16 15 15 15 15 15 15 15 14 15 15 15 15 14 15 16 16 15 15 16
15 15 15 16 16 16 16 16 16 16 16 16 16 16 16 15 14 14 15 15 15 15 15 15 13 14 15 15 15 14 15 15
14 14 15 15 15 15 16 16 16 16 16 16 16 16 16 16 16 15 14 15 15 15 15 14 14 14 14 15 14 15 15 15
13 13 14 14 14 15 15 15 15 15 15 15 15 15 15 15 15 15 15 14 15 15 14 14 14 14 14 14 14 14 15 15
12 12 13 13 14 14 14 14 14 14 14 14 13 13 14 14 14 14 15 14 14 14 15 14 14 14 14 14 14 14 14 14
11 12 12 12 12 13 12 12 13 13 13 12 12 12 12 12 13 13 13 14 13 13 13 14 14 14 14 14 14 14 14 14
10 10 10 11 11 11 10 9 9 8 8 9 10 10 10 10 10 11 11 11 11 12 12 13 14 14 14 14 14 15 14 14
9 9 9 9 9 9 9 8 6 6 6 5 4 7 7 6 8 10 10 10 9 8 11 12 13 13 14 14 14 14 15 14
6 6 7 7 7 6 4 4 3 3 2 3 3 3 4 4 3 5 8 5 6 7 8 10 12 13 13 13 14 14 15 14
3 3 3 5 4 4 2 2 3 2 0 0 1 -1 2 0 0 2 4 3 5 6 7 9 10 12 12 13 13 13 13 14
2 2 3 2 2 -0 -2 -3 -3 -3 -2 -2 -2 -1 -1 -1 0 1 1 2 3 4 5 7 9 10 12 12 13 13 13 13
3 3 1 -0 -0 -2 -3 -3 -3 -3 -3 -4 -1 -1 -2 -1 -1 0 1 2 2 3 4 5 7 10 11 12 12 12 13 12
1 1 -2 -2 -0 -2 -4 -4 -4 -5 -5 -5 -4 -3 -1 -1 -0 -0 0 1 2 3 3 4 6 7 10 11 11 12 13 11
-1 -2 -2 0 -1 -4 -5 -5 -5 -6 -6 -5 -5 -1 -1 -0 0 1 1 2 2 2 3 4 4 6 9 10 11 11 12 13
-2 -1 -3 -2 -4 -4 -4 -6 -6 -6 -6 -6 -6 -4 -2 -1 -0 1 2 2 3 3 4 4 4 5 7 9 11 11 11 11
0 -0 -2 -2 -1 -1 -2 -5 -6 -7 -7 -7 -6 -5 -3 -2 -2 -0 1 2 2 3 4 5 5 5 6 8 10 11 11 11
0 0 0 0 -0 0 -1 -2 -4 -6 -6 -6 -6 -6 -6 -4 -2 -2 -1 1 3 4 4 5 6 6 6 7 9 10 11 11

GFSFLT2_850_temp_156.txt.gz
Temp
16 16 17 17 17 17 16 16 16 16 16 16 16 16 15 16 16 16 16 17 17 16 16 16 16 16 16 16 16 15 16 16
17 17 17 17 17 17 17 17 17 17 17 16 16 15 16 16 15 15 16 16 16 16 16 16 16 16 16 16 16 16 16 16
16 17 17 17 17 16 16 16 16 16 16 16 16 17 17 16 16 15 15 15 15 15 16 16 16 16 16 16 16 16 16 16
16 17 16 16 16 16 16 16 16 16 16 16 16 17 16 17 17 17 16 15 15 15 15 15 15 16 16 16 16 16 16 16
15 16 16 16 16 16 16 16 16 16 16 16 16 16 17 16 16 16 16 16 15 15 15 15 15 15 16 16 17 16 16 16
14 15 15 15 15 15 15 15 15 15 15 15 16 16 16 16 16 16 15 15 15 14 14 14 14 14 15 16 15 16 16 17
13 14 14 14 14 14 14 14 14 14 14 13 14 14 14 14 15 15 15 14 13 12 12 13 14 14 14 15 15 15 15 15
10 12 13 13 13 14 13 13 13 12 12 11 11 10 11 11 12 12 12 11 11 11 11 11 13 13 14 14 14 15 16 16
9 10 12 12 12 12 11 10 10 10 8 7 7 7 7 8 8 9 9 8 10 11 12 11 10 13 13 14 14 14 15 15
8 9 10 11 11 10 10 8 8 7 6 5 4 4 5 5 6 7 8 8 8 9 9 9 9 10 11 13 13 14 14 14
7 9 11 11 10 10 8 6 5 5 4 3 3 3 1 1 0 1 4 6 6 6 7 7 7 9 9 10 13 13 14 14
7 8 9 9 9 8 8 7 6 4 2 2 1 1 -0 -1 -1 -1 -0 -0 1 2 3 5 5 7 8 9 10 12 13 14
4 5 6 7 7 6 6 4 3 2 1 1 0 -1 -2 -2 -2 -2 -1 -1 -0 0 1 2 4 6 7 8 9 11 13 14
3 3 4 5 5 3 3 3 1 0 1 -0 -2 -2 -3 -3 -3 -3 -2 -2 -1 -1 0 1 2 4 4 6 8 10 11 13
2 2 2 4 4 3 3 2 2 1 0 -1 -2 -4 -4 -4 -4 -3 -2 -1 -1 -0 -0 0 1 2 4 4 8 10 11 12
2 1 1 3 3 3 2 0 -1 -2 -2 -2 -4 -4 -5 -5 -5 -3 -2 -2 -1 -1 -0 0 0 1 3 4 5 6 7 11
1 1 1 2 1 2 1 -1 -2 -2 -1 -2 -4 -5 -6 -5 -5 -4 -3 -2 -1 -1 0 1 1 1 2 3 5 6 7 8
1 1 0 1 0 1 2 1 -2 -3 -2 -3 -4 -5 -5 -6 -6 -5 -4 -3 -2 -1 -1 -0 1 1 2 2 3 4 6 8
0 -0 -1 -0 0 1 2 2 0 -2 -4 -5 -5 -5 -5 -5 -6 -5 -5 -4 -3 -2 -1 -1 0 0 1 2 3 4 5 6
-1 0 -1 -2 0 1 2 1 1 -1 -3 -4 -5 -6 -7 -5 -5 -6 -5 -5 -4 -3 -2 -1 -0 0 1 2 2 4 5 6

GFSFLT2_850_temp_159.txt.gz
Temp
16 16 17 17 17 17 17 17 17 17 16 16 15 15 15 16 16 15 15 15 15 15 16 16 16 16 16 16 17 17 17 17
17 17 17 17 17 17 17 17 16 17 17 17 16 16 16 15 15 15 15 15 15 15 15 15 15 16 16 16 16 16 17 17
17 17 17 17 17 17 16 16 16 16 16 16 16 16 16 16 16 16 16 15 15 15 15 15 15 15 16 16 16 16 17 17
15 16 16 16 16 16 16 16 16 16 16 16 16 16 16 16 16 16 16 16 17 16 15 14 14 15 15 16 16 16 16 17
15 15 15 15 16 16 15 15 16 15 15 15 16 16 16 16 16 16 16 16 16 16 16 14 14 14 14 15 15 16 16 16
13 14 14 14 15 15 15 15 15 15 15 15 15 15 15 15 15 16 16 15 15 15 15 15 14 13 14 14 14 15 15 15
12 13 13 13 14 14 14 14 15 14 13 13 14 14 14 14 15 14 14 14 15 15 15 15 14 14 13 13 14 14 14 15
10 11 12 12 12 13 13 13 13 12 12 11 10 12 11 13 13 13 13 12 12 13 13 13 13 12 13 12 13 14 14 14
9 9 10 11 12 12 11 11 10 10 10 8 9 9 9 10 10 10 10 11 10 11 11 11 11 11 11 12 13 12 13 14
8 9 9 10 10 9 9 9 9 8 7 6 8 6 7 8 8 9 9 9 9 9 9 9 9 9 10 11 11 12 13 14
7 7 8 9 9 8 8 8 7 5 4 4 3 3 3 4 4 5 6 6 7 7 7 6 7 8 9 9 10 10 11 13
6 6 7 7 7 8 8 7 6 5 4 2 2 2 1 1 1 -1 -2 -1 -0 0 1 3 2 4 7 8 9 9 10 11
4 6 6 7 8 8 8 7 5 4 3 3 2 2 1 -1 -3 -4 -3 -2 -2 -1 -1 -1 -0 1 2 5 7 8 9 11
4 4 5 6 7 6 6 5 4 4 4 3 3 2 -1 -3 -4 -4 -3 -2 -1 -0 -0 -0 -0 0 1 2 4 7 8 9
3 4 5 5 5 5 5 4 4 4 4 3 1 -0 -4 -5 -5 -5 -4 -3 -2 -1 -0 -1 -1 0 0 1 4 7 7 9
3 4 4 5 4 4 5 4 4 2 2 1 0 -2 -3 -5 -5 -4 -3 -3 -3 -2 -1 -1 -1 -0 0 1 2 3 4 5
1 2 2 3 3 4 4 4 3 2 2 2 1 -1 -3 -3 -4 -4 -3 -4 -3 -3 -2 -1 -1 -1 -0 1 1 2 3 3
1 1 1 2 3 3 3 2 2 2 2 2 1 0 -2 -3 -4 -4 -4 -4 -4 -3 -2 -2 -1 -1 -0 0 1 1 2 3
1 0 0 1 2 2 2 1 1 1 1 1 1 0 -1 -2 -3 -4 -5 -5 -4 -4 -3 -3 -2 -1 -1 0 1 1 2 2
1 0 0 1 2 1 1 1 1 0 0 0 -0 -0 -1 -2 -3 -3 -4 -5 -5 -5 -5 -4 -3 -2 -1 -0 1 1 2 2

GFSFLT2_850_temp_162.txt.gz
Temp
15 15 16 17 17 18 17 17 17 17 17 16 16 15 15 15 15 15 15 15 15 15 15 15 15 15 15 16 16 16 16 16
15 16 16 17 17 17 17 17 17 17 16 16 16 16 16 16 16 15 15 15 15 15 15 15 15 15 15 15 16 16 16 16
15 15 15 16 16 16 16 16 16 16 16 16 16 16 16 16 16 16 16 16 16 15 15 15 15 14 14 15 15 15 16 16
15 14 15 15 15 15 15 15 15 15 16 16 16 16 16 16 16 16 16 16 16 16 16 15 15 15 15 14 14 15 15 15
13 13 14 14 14 15 15 15 15 14 15 15 15 15 16 16 16 16 16 16 16 16 16 16 15 14 15 14 14 15 15 14
12 12 12 13 13 13 14 14 14 14 14 15 15 15 15 15 15 15 15 15 15 15 15 15 15 15 14 14 13 13 14 15
12 12 12 12 12 12 12 13 13 13 13 13 14 14 14 14 14 14 14 14 14 15 15 15 15 14 14 13 13 13 13 13
11 11 11 11 11 12 12 11 11 11 12 13 13 13 13 13 13 13 13 13 13 13 14 14 15 14 14 13 13 13 13 12
9 10 10 10 10 10 10 10 9 10 10 10 10 10 10 10 11 11 11 11 11 12 12 12 12 12 13 13 13 13 13 12
9 9 9 8 9 8 8 9 9 8 8 7 7 8 8 9 9 9 9 10 10 9 10 10 10 10 11 12 12 12 12 12
9 8 8 9 8 8 8 7 7 7 7 6 6 6 7 7 7 8 8 8 8 8 8 7 7 8 9 10 11 11 12 12
8 8 7 8 7 7 7 6 6 6 6 7 6 5 5 5 5 5 5 5 5 4 4 5 3 4 6 8 10 10 11 11
7 6 7 7 7 8 7 7 6 6 6 5 6 5 4 3 2 3 1 1 0 0 -0 -1 -1 -0 1 4 7 9 10 10
6 6 6 7 7 7 7 6 5 5 5 5 5 4 3 2 1 0 -1 -2 -2 -1 -1 -0 -0 -0 -0 0 3 7 7 7
5 5 5 5 5 5 6 5 5 5 5 5 4 4 3 1 -0 -1 -2 -2 -2 -1 -1 -1 -2 1 0 -0 1 3 3 7
4 4 4 5 5 6 6 6 6 4 4 4 3 3 2 1 -0 -1 -2 -2 -2 -2 -2 -2 -2 -1 -0 1 0 1 1 2
4 4 4 5 5 5 5 5 4 3 3 3 3 2 2 1 1 -0 -2 -3 -3 -3 -3 -2 -2 -2 -1 -1 -1 0 1 1
3 3 4 3 4 4 4 4 4 3 3 3 2 2 2 1 0 0 -1 -3 -3 -4 -4 -4 -3 -3 -2 -1 -1 -1 0 1
2 2 3 2 3 3 3 2 3 3 3 2 2 2 1 0 -0 -1 -1 -2 -3 -4 -4 -4 -4 -4 -3 -2 -1 -1 -1 0
1 1 1 1 2 2 2 1 1 1 1 1 1 0 -0 -1 -1 -1 -1 -1 -2 -3 -4 -4 -5 -5 -4 -3 -2 -2 -1 -1